[[{"header":{"parameterUnit":"m.s-1","parameterCategory":2,"la1":30.2991,"la2":30.254,"lo1":-89.0895,"lo2":-89.0444,"dy":0.0017,"dx":0.0017,"nx":28,"ny":28,"refTime":"2023-05-26T21:00:00:Z","depth":"0","parameterNumber":2,"parameterNumberName":"U-component_of_CURRENTS"},"data":[0,0,0,0,0,0,0,0,0,0,0,0,0,0,0,0,0,0,0,0,0,0,0,0,0,0,0,0,0,0,0,0,0,0,0,0,0,0,0,0,0,0,0,0,0,0,0,0,0,0,0,0,0,0,0,0,0,0,0.4274,0.4274,0,0.4206,0.4205,0.4204,0.4066,0.4064,0.4062,0.4059,0.3712,0.3706,0.3699,0,0,0,0,0,0,0,0,0,0,0,0,0,0.431,0.431,0.4274,0.4274,0.4273,0.4206,0.4205,0.4203,0.4067,0.4064,0.4061,0.4058,0.3715,0.3706,0.3698,0,0,0,0,0,0,0,0,0,0,0,0,0,0.4271,0.431,0.4275,0.4199,0.4192,0.4206,0.4205,0.4203,0.4068,0.4064,0.406,0.4057,0.3717,0.3707,0.3697,0.3706,0,0,0.3665,0.3661,0,0,0,0,0,0,0,0,0.4273,0.4269,0.4211,0.4204,0.4196,0.4143,0.409,0.4024,0.4068,0.4112,0.4059,0.4055,0.3835,0.3815,0.381,0.369,0.3675,0.3664,0.3658,0.3653,0.365,0,0,0,0,0,0,0,0.4276,0.4272,0.4244,0.4211,0.4202,0.4177,0.4166,0.4078,0.3988,0.4108,0.4098,0.4096,0.3828,0.3821,0.38,0.367,0.3664,0.3655,0.3649,0.3645,0.369,0.3698,0,0,0,0,0,0,0.4293,0.4275,0.4247,0.4243,0.423,0.4179,0.4168,0.4162,0.3994,0.3968,0.41,0.409,0.3841,0.3813,0.3787,0.384,0.3653,0.3644,0.3638,0.3683,0.3692,0.37,0,0,0,0,0,0,0.4294,0.4292,0.4249,0.4259,0.4252,0.4183,0.4177,0.4162,0.4148,0.3992,0.3959,0.41,0.3836,0.3802,0.3759,0.3823,0.3639,0.3629,0.3674,0.3686,0.3696,0.3912,0,0,0,0,0,0,0.4296,0.4292,0.4305,0.4261,0.4252,0.428,0.4181,0.4164,0.4154,0.4141,0.3981,0.3946,0.3831,0.3777,0.3749,0.3805,0.3621,0.3665,0.3679,0.3693,0.3895,0.3929,0.3958,0,0,0,0,0,0.4297,0.4325,0.4306,0.4303,0.4268,0.4283,0.4279,0.4213,0.4159,0.4181,0.4095,0.3951,0.3847,0.3773,0.3739,0.3793,0.3658,0.3675,0.3692,0.3881,0.3922,0.3957,0,0,0,0,0,0,0.4349,0.4313,0.429,0.4306,0.4309,0.4261,0.4273,0.4235,0.4191,0.4168,0.4009,0.3972,0.3972,0.3884,0.3806,0.387,0.3744,0.3755,0.39,0.3937,0.3968,0.3937,0.3613,0,0,0,0,0,0.4373,0.4377,0.4355,0.4374,0.4376,0.4333,0.4332,0.43,0.4253,0.4229,0.4135,0.4063,0.4026,0.3976,0.393,0.393,0.3871,0.3968,0.4,0.4026,0.3993,0.4006,0.4032,0.3755,0.3755,0.3755,0,0,0.4396,0.4382,0.4382,0.4386,0.4373,0.4392,0.4322,0.434,0.4352,0.4196,0.4191,0.4155,0.406,0.4084,0.4077,0.3999,0.4098,0.4047,0.4068,0.402,0.4025,0.4051,0.4073,0.3767,0.3765,0.3763,0,0,0.445,0.444,0.446,0.447,0.4475,0.4458,0.4472,0.4456,0.4443,0.4458,0.4377,0.4392,0.4307,0.4278,0.4241,0.4423,0.4274,0.4432,0.4524,0.4541,0.456,0.4577,0.4612,0.4629,0.4432,0.4433,0.4433,0,0.4476,0.449,0.4478,0.4505,0.4507,0.449,0.4516,0.4526,0.4507,0.4502,0.4483,0.446,0.44,0.4408,0.45,0.448,0.4466,0.4369,0.4572,0.4586,0.4599,0.463,0.4646,0.4445,0.4444,0.4443,0.4441,0,0.4535,0.4552,0.4573,0.4586,0.4606,0.4634,0.464,0.467,0.4662,0.4656,0.4697,0.4676,0.4637,0.4685,0.463,0.4718,0.4678,0.4614,0.445,0.4638,0.4662,0.4675,0.4463,0.4459,0.4455,0.4452,0,0,0.4539,0.4598,0.4597,0.4607,0.4642,0.4653,0.4708,0.473,0.4735,0.4789,0.4797,0.4854,0.4842,0.481,0.479,0.4834,0.4974,0.4775,0.477,0.4764,0.5027,0.5037,0.505,0.4932,0.4934,0.4936,0.5032,0,0.4571,0.4628,0.465,0.4694,0.4711,0.4725,0.4764,0.4792,0.4812,0.4835,0.4865,0.4874,0.4886,0.4886,0.4946,0.4939,0.5005,0.4954,0.4882,0.488,0.4826,0.5064,0.4861,0.4931,0.5043,0.5045,0.5046,0,0.4584,0.4621,0.4669,0.4712,0.4719,0.4744,0.4765,0.4803,0.4845,0.4866,0.4903,0.4903,0.4982,0.4968,0.506,0.5021,0.5048,0.5067,0.5069,0.4984,0.4912,0.4753,0.4947,0.4736,0.5064,0.5062,0.5061,0,0.4536,0.461,0.464,0.4656,0.4722,0.4731,0.4753,0.4795,0.4803,0.4864,0.4878,0.4956,0.4977,0.5039,0.5098,0.5077,0.5189,0.5145,0.5189,0.5189,0.4951,0.4927,0.4873,0.5222,0.5222,0.5221,0.5221,0,0.4522,0.4528,0.4614,0.4622,0.4634,0.4693,0.4693,0.4733,0.4776,0.4782,0.4869,0.4894,0.4996,0.506,0.5116,0.5205,0.5201,0.5242,0.5226,0.5038,0.5022,0.4767,0.4663,0.5225,0.5224,0.5224,0.5223,0,0.4425,0.4495,0.4512,0.459,0.4601,0.4592,0.4618,0.4614,0.4693,0.4703,0.4722,0.4848,0.4967,0.5068,0.5175,0.5218,0.5144,0.5317,0.5114,0.5075,0.4943,0.4861,0.4692,0.4573,0.5407,0.5408,0.5409,0,0.4375,0.4386,0.4449,0.4435,0.4451,0.4456,0.4445,0.4535,0.4535,0.4665,0.4657,0.4806,0.4893,0.5092,0.5218,0.5353,0.5135,0.5208,0.5152,0.4948,0.4843,0.4686,0.4586,0.4948,0.4945,0.4943,0.4941,0,0.4263,0.4284,0.4297,0.4287,0.4272,0.4266,0.4272,0.4277,0.4389,0.4441,0.4542,0.4641,0.4892,0.4963,0.5158,0.5209,0.4933,0.5167,0.4969,0.4517,0.4317,0.4188,0.4892,0.4919,0.4921,0.4923,0.4924,0.4925,0.4141,0.4117,0.4139,0.4107,0.4092,0.4068,0.4023,0.4085,0.4117,0.4184,0.4357,0.4463,0.463,0.4926,0.4927,0.4817,0.4875,0.4665,0.4601,0.4477,0.4293,0.4999,0.4999,0.5002,0.5004,0.5006,0.5008,0,0.3987,0.3983,0.395,0.3916,0.3839,0.3891,0.3887,0.3844,0.3863,0.3997,0.4089,0.4221,0.4262,0.4359,0.4388,0.4235,0.4083,0.407,0.3728,0.3679,0.4298,0.4206,0.4014,0.4014,0.4014,0.4014,0.4014,0.4015,0.3905,0.3832,0.3829,0.3681,0.364,0.3515,0.3492,0.3498,0.3564,0.3599,0.3667,0.3763,0.3906,0.3835,0.3635,0.3573,0.3282,0.3185,0.3192,0.353,0.3576,0.3621,0.3508,0.3173,0.3172,0.2425,0.2419,0.2414]},{"header":{"parameterUnit":"m.s-1","parameterCategory":2,"la1":30.2991,"la2":30.254,"lo1":-89.0895,"lo2":-89.0444,"dy":0.0017,"dx":0.0017,"nx":28,"ny":28,"refTime":"2023-05-26T21:00:00:Z","depth":"0","parameterNumber":3,"parameterNumberName":"V-component_of_CURRENTS"},"data":[0,0,0,0,0,0,0,0,0,0,0,0,0,0,0,0,0,0,0,0,0,0,0,0,0,0,0,0,0,0,0,0,0,0,0,0,0,0,0,0,0,0,0,0,0,0,0,0,0,0,0,0,0,0,0,0,0,0,-0.1143,-0.1141,0,-0.0959,-0.0957,-0.0954,-0.0799,-0.0797,-0.0796,-0.0794,-0.0687,-0.0686,-0.0685,0,0,0,0,0,0,0,0,0,0,0,0,0,-0.1307,-0.1305,-0.1143,-0.1141,-0.1139,-0.0959,-0.0957,-0.0954,-0.0799,-0.0797,-0.0795,-0.0794,-0.0688,-0.0686,-0.0684,0,0,0,0,0,0,0,0,0,0,0,0,0,-0.1189,-0.1305,-0.1144,-0.1042,-0.1031,-0.096,-0.0956,-0.0953,-0.0799,-0.0797,-0.0795,-0.0793,-0.0688,-0.0686,-0.0684,-0.0716,0,0,-0.0677,-0.0677,0,0,0,0,0,0,0,0,-0.1196,-0.1183,-0.1059,-0.1049,-0.1037,-0.0901,-0.0975,-0.0878,-0.08,-0.0885,-0.0794,-0.0792,-0.0769,-0.076,-0.0726,-0.0711,-0.0706,-0.0677,-0.0676,-0.0675,-0.0674,0,0,0,0,0,0,0,-0.1205,-0.119,-0.1068,-0.1057,-0.1043,-0.0987,-0.0968,-0.0955,-0.0842,-0.0877,-0.0866,-0.085,-0.0763,-0.0729,-0.0723,-0.0704,-0.0677,-0.0675,-0.0674,-0.0673,-0.0691,-0.0693,0,0,0,0,0,0,-0.1237,-0.1198,-0.1074,-0.1063,-0.1115,-0.0986,-0.0965,-0.0945,-0.084,-0.0821,-0.0852,-0.0844,-0.0734,-0.0726,-0.0719,-0.0755,-0.0675,-0.0673,-0.0672,-0.0689,-0.0691,-0.0693,0,0,0,0,0,0,-0.1241,-0.1228,-0.1081,-0.1128,-0.1106,-0.0987,-0.0965,-0.0943,-0.0909,-0.082,-0.0802,-0.0842,-0.0731,-0.0722,-0.0713,-0.0749,-0.0672,-0.067,-0.0687,-0.069,-0.0692,-0.0825,0,0,0,0,0,0,-0.1247,-0.123,-0.1239,-0.113,-0.1104,-0.1072,-0.0967,-0.0941,-0.0903,-0.089,-0.0806,-0.0793,-0.0729,-0.0717,-0.0711,-0.0745,-0.0668,-0.0685,-0.0688,-0.0692,-0.0818,-0.0832,-0.0843,0,0,0,0,0,-0.1253,-0.1278,-0.124,-0.1226,-0.1116,-0.1074,-0.1058,-0.0962,-0.0906,-0.0918,-0.0845,-0.0795,-0.0733,-0.0717,-0.0709,-0.0744,-0.0683,-0.0687,-0.0691,-0.0813,-0.0829,-0.0843,0,0,0,0,0,0,-0.1364,-0.1262,-0.1218,-0.1213,-0.1163,-0.1049,-0.1053,-0.0983,-0.0931,-0.0921,-0.0822,-0.0806,-0.0809,-0.0768,-0.0751,-0.0759,-0.07,-0.0703,-0.0795,-0.081,-0.0822,-0.0821,-0.0666,0,0,0,0,0,-0.1394,-0.1379,-0.1286,-0.1289,-0.1272,-0.1167,-0.114,-0.1078,-0.1011,-0.0983,-0.0919,-0.086,-0.0822,-0.0808,-0.0773,-0.0791,-0.0745,-0.0807,-0.0819,-0.083,-0.0825,-0.0798,-0.0807,-0.0707,-0.0707,-0.0706,0,0,-0.1437,-0.1383,-0.1373,-0.1312,-0.1262,-0.124,-0.1146,-0.1125,-0.1098,-0.0988,-0.0958,-0.091,-0.0836,-0.0837,-0.0836,-0.0807,-0.084,-0.0835,-0.0845,-0.0833,-0.0803,-0.0813,-0.0821,-0.0709,-0.0709,-0.0708,0,0,-0.151,-0.1475,-0.1478,-0.1444,-0.1386,-0.1324,-0.1328,-0.1235,-0.1193,-0.1169,-0.1074,-0.1051,-0.0996,-0.0943,-0.0909,-0.0979,-0.0907,-0.0974,-0.1037,-0.1013,-0.102,-0.1027,-0.1001,-0.1003,-0.0981,-0.0981,-0.0981,0,-0.1564,-0.1535,-0.1483,-0.1476,-0.1442,-0.1368,-0.1357,-0.1323,-0.1237,-0.1202,-0.1185,-0.1078,-0.1042,-0.1,-0.1023,-0.1008,-0.0976,-0.0986,-0.1029,-0.1034,-0.1038,-0.1009,-0.101,-0.0988,-0.0987,-0.0986,-0.0986,0,-0.1614,-0.1596,-0.161,-0.1556,-0.1535,-0.1526,-0.146,-0.1445,-0.139,-0.1325,-0.1289,-0.1234,-0.1156,-0.1162,-0.1115,-0.112,-0.1083,-0.1049,-0.0991,-0.1056,-0.1022,-0.1021,-0.0998,-0.0995,-0.0993,-0.0991,0,0,-0.1681,-0.1644,-0.164,-0.1607,-0.1563,-0.1533,-0.1536,-0.1475,-0.1431,-0.1409,-0.1344,-0.1328,-0.1282,-0.1242,-0.1191,-0.1187,-0.1214,-0.1144,-0.1139,-0.1119,-0.1158,-0.1104,-0.1097,-0.1186,-0.1186,-0.1186,-0.1129,0,-0.1715,-0.1706,-0.1678,-0.1657,-0.1631,-0.1579,-0.1563,-0.1515,-0.1467,-0.1408,-0.1372,-0.1305,-0.1316,-0.1271,-0.1284,-0.1201,-0.1214,-0.1232,-0.1095,-0.1091,-0.1037,-0.1095,-0.0949,-0.0883,-0.1128,-0.1127,-0.1127,0,-0.173,-0.1714,-0.1701,-0.164,-0.1625,-0.1609,-0.153,-0.1507,-0.1443,-0.1405,-0.1371,-0.1316,-0.1295,-0.1296,-0.1252,-0.1259,-0.1234,-0.1199,-0.1194,-0.1091,-0.1035,-0.0853,-0.0871,-0.1001,-0.1124,-0.1124,-0.1125,0,-0.172,-0.1706,-0.1684,-0.1667,-0.1615,-0.1591,-0.1556,-0.1495,-0.1425,-0.1386,-0.1319,-0.1313,-0.125,-0.1254,-0.1205,-0.1222,-0.1144,-0.1146,-0.1084,-0.1079,-0.0898,-0.0877,-0.1018,-0.114,-0.114,-0.114,-0.114,0,-0.1707,-0.1677,-0.1673,-0.1646,-0.1587,-0.1574,-0.1487,-0.1458,-0.138,-0.1258,-0.1302,-0.1196,-0.1236,-0.1184,-0.1191,-0.1123,-0.1135,-0.1099,-0.1063,-0.0943,-0.0927,-0.0983,-0.108,-0.1138,-0.1138,-0.1139,-0.1139,0,-0.164,-0.1661,-0.1606,-0.1579,-0.1564,-0.1505,-0.1396,-0.131,-0.1292,-0.1135,-0.1109,-0.1081,-0.1027,-0.1058,-0.1027,-0.1055,-0.1051,-0.0998,-0.0861,-0.0811,-0.0899,-0.1006,-0.1057,-0.1106,-0.0934,-0.0932,-0.0931,0,-0.159,-0.1569,-0.1527,-0.147,-0.1439,-0.1363,-0.1274,-0.1244,-0.1133,-0.1019,-0.091,-0.0867,-0.0746,-0.0735,-0.0798,-0.0816,-0.0949,-0.073,-0.0758,-0.0898,-0.0991,-0.107,-0.1116,-0.0573,-0.0569,-0.0565,-0.0562,0,-0.147,-0.1463,-0.1412,-0.1304,-0.1216,-0.1106,-0.0993,-0.0906,-0.0829,-0.0708,-0.0527,-0.044,-0.0453,-0.0384,-0.0489,-0.0531,-0.0798,-0.0662,-0.0826,-0.0748,-0.0819,-0.0847,-0.0637,-0.0532,-0.0535,-0.0537,-0.0539,-0.054,-0.1344,-0.1279,-0.1213,-0.1088,-0.0984,-0.0826,-0.0702,-0.0577,-0.0393,-0.016,-0.0164,0.0083,0.0032,-0.0077,-0.0258,-0.0489,-0.0593,-0.0517,-0.064,-0.0714,-0.0761,-0.0503,-0.0354,-0.0356,-0.0358,-0.036,-0.0361,0,-0.1159,-0.1103,-0.0987,-0.0831,-0.0649,-0.0655,-0.0473,-0.0327,-0.0081,0.0177,0.037,0.0642,0.0527,0.028,-0.0052,-0.0358,-0.0526,-0.0556,-0.0646,-0.0701,-0.045,-0.0435,-0.0273,-0.0273,-0.0273,-0.0273,-0.0273,-0.0273,-0.1054,-0.0907,-0.0856,-0.0544,-0.0423,-0.0191,-0.0078,0.0106,0.0317,0.0739,0.1051,0.1222,0.1152,0.0324,-0.0277,-0.0469,-0.0757,-0.0773,-0.101,-0.0853,-0.086,-0.0866,-0.0878,-0.0811,-0.0812,-0.1144,-0.1148,-0.1151]}],[{"header":{"parameterUnit":"m.s-1","parameterCategory":2,"la1":30.2991,"la2":30.254,"lo1":-89.0895,"lo2":-89.0444,"dy":0.0017,"dx":0.0017,"nx":28,"ny":28,"refTime":"2023-05-26T21:00:00:Z","depth":"2","parameterNumber":2,"parameterNumberName":"U-component_of_CURRENTS"},"data":[0,0,0,0,0,0,0,0,0,0,0,0,0,0,0,0,0,0,0,0,0,0,0,0,0,0,0,0,0,0,0,0,0,0,0,0,0,0,0,0,0,0,0,0,0,0,0,0,0,0,0,0,0,0,0,0,0,0,0.2265,0.2267,0,0.2405,0.2406,0.2407,0.2471,0.2472,0.2473,0.2474,0.2428,0.2426,0.2424,0,0,0,0,0,0,0,0,0,0,0,0,0,0.2123,0.2124,0.2264,0.2267,0.227,0.2405,0.2406,0.2407,0.2471,0.2472,0.2473,0.2474,0.2429,0.2426,0.2424,0,0,0,0,0,0,0,0,0,0,0,0,0,0.2206,0.2124,0.2264,0.2325,0.2333,0.2405,0.2406,0.2407,0.2471,0.2472,0.2473,0.2474,0.2429,0.2427,0.2424,0.2383,0,0,0.2415,0.2414,0,0,0,0,0,0,0,0,0.2201,0.221,0.2314,0.2321,0.233,0.243,0.234,0.2393,0.2471,0.2408,0.2474,0.2475,0.2417,0.2415,0.2428,0.2381,0.2379,0.2415,0.2413,0.2412,0.2411,0,0,0,0,0,0,0,0.2195,0.2205,0.231,0.2317,0.2327,0.2371,0.2382,0.2351,0.2393,0.2414,0.2421,0.2452,0.2419,0.2431,0.2427,0.2378,0.2415,0.2412,0.241,0.2409,0.2481,0.2485,0,0,0,0,0,0,0.2193,0.2199,0.2306,0.2316,0.2278,0.2373,0.2385,0.2389,0.2398,0.2405,0.2451,0.2455,0.2435,0.243,0.2425,0.2459,0.2412,0.2409,0.2407,0.2477,0.2482,0.2486,0,0,0,0,0,0,0.2188,0.2199,0.2301,0.227,0.2287,0.2374,0.2378,0.2392,0.2442,0.243,0.2432,0.2494,0.2436,0.2429,0.2438,0.2455,0.2408,0.2405,0.2473,0.2479,0.2484,0.2474,0,0,0,0,0,0,0.2183,0.2196,0.22,0.2269,0.2289,0.2345,0.2379,0.2394,0.2462,0.2469,0.2466,0.2462,0.2436,0.2443,0.2435,0.245,0.2403,0.2469,0.2476,0.2482,0.2469,0.2478,0.2485,0,0,0,0,0,0.2177,0.2173,0.2198,0.2213,0.2289,0.2346,0.2359,0.242,0.2463,0.2472,0.2496,0.2464,0.2483,0.2442,0.2432,0.2446,0.2465,0.2474,0.2482,0.2466,0.2476,0.2485,0,0,0,0,0,0,0.2118,0.2183,0.2211,0.2229,0.2288,0.2361,0.2387,0.244,0.247,0.2479,0.2477,0.2473,0.2487,0.249,0.2446,0.2504,0.2481,0.2488,0.2473,0.2483,0.2491,0.2509,0.24,0,0,0,0,0,0.2107,0.2122,0.2194,0.2215,0.2241,0.2322,0.236,0.2402,0.2446,0.2464,0.2477,0.2502,0.2509,0.2515,0.251,0.2522,0.2576,0.2546,0.2554,0.256,0.258,0.2649,0.2663,0.2513,0.2513,0.2512,0,0,0.2096,0.2136,0.2147,0.2205,0.2255,0.2297,0.2345,0.2402,0.2444,0.2446,0.2497,0.2507,0.252,0.2536,0.2548,0.2541,0.265,0.2571,0.2574,0.2591,0.2659,0.2673,0.2685,0.2518,0.2517,0.2516,0,0,0.2098,0.2112,0.2136,0.2172,0.2251,0.2291,0.2318,0.24,0.2438,0.2481,0.251,0.2548,0.2558,0.2583,0.2593,0.2654,0.2678,0.2668,0.2718,0.2785,0.2796,0.2807,0.2952,0.2976,0.2683,0.2683,0.2683,0,0.2098,0.2128,0.2154,0.2188,0.2239,0.2295,0.2348,0.2375,0.2456,0.2501,0.2495,0.2592,0.2581,0.2642,0.267,0.2663,0.2739,0.2659,0.2789,0.2801,0.2811,0.2958,0.2983,0.2683,0.2683,0.2683,0.2683,0,0.2122,0.2149,0.2165,0.2225,0.2267,0.2314,0.2367,0.2412,0.2469,0.2517,0.2593,0.2605,0.268,0.2685,0.2682,0.2777,0.2823,0.2771,0.2745,0.2825,0.2976,0.3003,0.2684,0.2684,0.2684,0.2683,0,0,0.2155,0.218,0.2196,0.2233,0.2297,0.2343,0.2393,0.2478,0.2548,0.2587,0.2702,0.271,0.2749,0.2772,0.2791,0.285,0.2992,0.2854,0.2857,0.2969,0.3217,0.3076,0.3093,0.2952,0.2956,0.2958,0.3311,0,0.2198,0.2251,0.226,0.2334,0.2381,0.2423,0.2471,0.254,0.2603,0.2703,0.2741,0.2824,0.2771,0.2832,0.2874,0.2961,0.3056,0.2907,0.3152,0.3162,0.2997,0.3114,0.2797,0.3066,0.3338,0.3342,0.3345,0,0.2253,0.2286,0.2357,0.2415,0.2442,0.2481,0.2606,0.265,0.2755,0.2813,0.2894,0.2935,0.305,0.2984,0.3168,0.3079,0.3163,0.322,0.3233,0.3117,0.3067,0.3025,0.3105,0.3391,0.3387,0.3384,0.3381,0,0.2315,0.2365,0.2428,0.2449,0.2512,0.2564,0.2603,0.2699,0.2768,0.2907,0.299,0.3096,0.3183,0.3276,0.3349,0.3297,0.3556,0.3496,0.347,0.3466,0.3252,0.3219,0.3646,0.3646,0.3645,0.3644,0.3643,0,0.2375,0.2433,0.2455,0.2496,0.2568,0.2607,0.2715,0.2761,0.2886,0.2996,0.3049,0.3178,0.325,0.3379,0.3446,0.3539,0.3637,0.3523,0.3536,0.3247,0.3211,0.351,0.3489,0.3658,0.3655,0.3652,0.365,0,0.244,0.2458,0.2528,0.2585,0.2599,0.2656,0.2748,0.2839,0.2928,0.3091,0.315,0.3292,0.3444,0.351,0.3699,0.3653,0.3768,0.3776,0.3463,0.3427,0.3644,0.362,0.3846,0.3844,0.3842,0.384,0.3839,0,0.2462,0.2509,0.2574,0.2612,0.2638,0.2715,0.2782,0.2863,0.2954,0.317,0.3256,0.3435,0.3487,0.3673,0.3668,0.3761,0.3818,0.3526,0.332,0.3669,0.3661,0.3639,0.3619,0.3104,0.3097,0.3091,0.3086,0,0.2496,0.2534,0.2567,0.2632,0.2699,0.2769,0.285,0.2901,0.3037,0.3135,0.326,0.3312,0.3465,0.3345,0.3412,0.3439,0.3464,0.3406,0.3881,0.3044,0.298,0.2967,0.297,0.3033,0.3039,0.3043,0.3046,0.3048,0.2499,0.2519,0.2553,0.2614,0.2685,0.2736,0.2726,0.28,0.2845,0.2869,0.3071,0.2992,0.3063,0.2934,0.2947,0.2987,0.3226,0.3084,0.31,0.3122,0.2913,0.2841,0.284,0.2844,0.2848,0.2851,0.2853,0,0.2468,0.2497,0.2535,0.2559,0.2579,0.2662,0.271,0.2625,0.2559,0.2629,0.2598,0.2333,0.2267,0.2397,0.2358,0.242,0.2382,0.2355,0.2254,0.2309,0.2358,0.2105,0.1821,0.1818,0.1815,0.1812,0,0,0.2451,0.2448,0.2452,0.2409,0.2446,0.2378,0.2358,0.2225,0.2165,0.1981,0.1901,0.1982,0.2178,0.186,0.1924,0.1853,0.2047,0.1795,0.2621,0.2546,0.2589,0.2784,0.2457,0,0,0,0,0]},{"header":{"parameterUnit":"m.s-1","parameterCategory":2,"la1":30.2991,"la2":30.254,"lo1":-89.0895,"lo2":-89.0444,"dy":0.0017,"dx":0.0017,"nx":28,"ny":28,"refTime":"2023-05-26T21:00:00:Z","depth":"2","parameterNumber":3,"parameterNumberName":"V-component_of_CURRENTS"},"data":[0,0,0,0,0,0,0,0,0,0,0,0,0,0,0,0,0,0,0,0,0,0,0,0,0,0,0,0,0,0,0,0,0,0,0,0,0,0,0,0,0,0,0,0,0,0,0,0,0,0,0,0,0,0,0,0,0,0,-0.0195,-0.0196,0,-0.0265,-0.0265,-0.0266,-0.0288,-0.0288,-0.0288,-0.0288,-0.0299,-0.0299,-0.03,0,0,0,0,0,0,0,0,0,0,0,0,0,-0.0033,-0.0036,-0.0195,-0.0196,-0.0197,-0.0265,-0.0265,-0.0266,-0.0288,-0.0288,-0.0288,-0.0288,-0.0299,-0.0299,-0.03,0,0,0,0,0,0,0,0,0,0,0,0,0,-0.0099,-0.0037,-0.0194,-0.0219,-0.0223,-0.0265,-0.0265,-0.0266,-0.0288,-0.0288,-0.0288,-0.0288,-0.0299,-0.0299,-0.03,-0.03,0,0,-0.0301,-0.0301,0,0,0,0,0,0,0,0,-0.0095,-0.0105,-0.0214,-0.0218,-0.0222,-0.0271,-0.0213,-0.0276,-0.0288,-0.0259,-0.0288,-0.0288,-0.0287,-0.0288,-0.0296,-0.0301,-0.0301,-0.0301,-0.0301,-0.0301,-0.0301,0,0,0,0,0,0,0,-0.0091,-0.0102,-0.0218,-0.0216,-0.022,-0.0211,-0.0221,-0.0224,-0.0267,-0.0261,-0.0264,-0.0278,-0.0288,-0.0296,-0.0297,-0.0301,-0.0301,-0.0301,-0.0301,-0.0301,-0.0345,-0.0346,0,0,0,0,0,0,-0.0094,-0.0098,-0.0216,-0.0221,-0.0162,-0.0215,-0.0225,-0.0252,-0.0269,-0.0273,-0.0278,-0.0279,-0.0295,-0.0296,-0.0297,-0.0301,-0.0301,-0.0301,-0.0302,-0.0344,-0.0345,-0.0346,0,0,0,0,0,0,-0.009,-0.0104,-0.0213,-0.0163,-0.0177,-0.0218,-0.0248,-0.0253,-0.0275,-0.0283,-0.0285,-0.0296,-0.0295,-0.0296,-0.0309,-0.0301,-0.0302,-0.0302,-0.0343,-0.0344,-0.0346,-0.0307,0,0,0,0,0,0,-0.0085,-0.0102,-0.011,-0.0164,-0.018,-0.0225,-0.0248,-0.0255,-0.0285,-0.0287,-0.0299,-0.0299,-0.0295,-0.0309,-0.031,-0.0302,-0.0302,-0.0342,-0.0343,-0.0345,-0.0307,-0.0307,-0.0307,0,0,0,0,0,-0.0079,-0.0064,-0.0111,-0.0124,-0.0194,-0.0225,-0.0231,-0.0257,-0.0286,-0.028,-0.0304,-0.0299,-0.0321,-0.0309,-0.031,-0.0303,-0.0341,-0.0343,-0.0345,-0.0308,-0.0307,-0.0307,0,0,0,0,0,0,0.0036,-0.0068,-0.0119,-0.013,-0.0181,-0.023,-0.0226,-0.0266,-0.0284,-0.0296,-0.0307,-0.0308,-0.0312,-0.0325,-0.0313,-0.0326,-0.0332,-0.0334,-0.0303,-0.0303,-0.0303,-0.0258,-0.0302,0,0,0,0,0,0.0042,0.0008,-0.0082,-0.0088,-0.0122,-0.0189,-0.0205,-0.0241,-0.0272,-0.0282,-0.0297,-0.0317,-0.032,-0.0327,-0.0329,-0.0339,-0.0325,-0.034,-0.034,-0.0339,-0.0307,-0.0296,-0.0291,-0.0353,-0.0353,-0.0353,0,0,0.0086,0.0026,0.0008,-0.007,-0.0117,-0.0134,-0.0196,-0.0231,-0.0229,-0.0279,-0.0274,-0.0311,-0.0323,-0.0324,-0.0329,-0.0336,-0.0318,-0.0342,-0.0341,-0.0308,-0.0298,-0.0291,-0.0285,-0.0354,-0.0354,-0.0354,0,0,0.0168,0.0091,0.0083,0.0036,-0.0049,-0.0092,-0.011,-0.0186,-0.0205,-0.0233,-0.0259,-0.0291,-0.0313,-0.0309,-0.0312,-0.0317,-0.0313,-0.0342,-0.0304,-0.0295,-0.0289,-0.0283,-0.0262,-0.0254,-0.0348,-0.0348,-0.0348,0,0.0228,0.0188,0.0088,0.0073,0.005,-0.0073,-0.007,-0.0103,-0.0166,-0.0171,-0.0224,-0.0263,-0.0291,-0.0264,-0.0284,-0.0308,-0.0308,-0.0299,-0.029,-0.0284,-0.0278,-0.0259,-0.0251,-0.0346,-0.0346,-0.0346,-0.0346,0,0.0291,0.0257,0.0255,0.018,0.0155,0.013,0.0052,0.0019,-0.0051,-0.0085,-0.0108,-0.0169,-0.0193,-0.0223,-0.026,-0.024,-0.0254,-0.0283,-0.0278,-0.0269,-0.025,-0.0242,-0.0344,-0.0344,-0.0345,-0.0345,0,0,0.041,0.0316,0.0307,0.0294,0.0196,0.0188,0.0174,0.0137,0.0136,0.0051,0.0069,0.0001,-0.0074,-0.0084,-0.0147,-0.0158,-0.0148,-0.0218,-0.0218,-0.0174,-0.0123,-0.0152,-0.0146,-0.0186,-0.0184,-0.0183,-0.0127,0,0.0477,0.0479,0.0413,0.0431,0.0418,0.032,0.0328,0.0283,0.0218,0.0206,0.0126,0.0102,-0.0006,-0.0052,-0.0075,-0.0123,-0.0126,-0.016,-0.0158,-0.0156,-0.0164,-0.0137,-0.0132,-0.0084,-0.0119,-0.0118,-0.0117,0,0.0529,0.0527,0.054,0.0528,0.0515,0.0507,0.0474,0.0462,0.0409,0.036,0.0302,0.0233,0.0194,0.0087,0.0039,0.0014,-0.0049,-0.0089,-0.0088,-0.0112,-0.017,-0.0101,-0.0068,-0.0104,-0.0105,-0.0106,-0.0107,0,0.0616,0.0613,0.0628,0.0616,0.0581,0.0573,0.0546,0.0492,0.0475,0.0433,0.0417,0.0365,0.0314,0.0248,0.0125,0.0074,0.0096,0.0021,-0.0043,-0.0045,-0.0034,-0.0038,0.0015,0.0015,0.0015,0.0015,0.0015,0,0.0682,0.0692,0.0659,0.0658,0.068,0.064,0.0619,0.0595,0.0555,0.0579,0.0477,0.0499,0.0342,0.0317,0.0208,0.0122,0.0159,-0.0006,-0.0025,-0.0025,-0.0029,-0.0046,-0.0053,0.0017,0.0016,0.0016,0.0016,0,0.0729,0.0699,0.0721,0.0712,0.0691,0.0696,0.0619,0.0623,0.0586,0.0618,0.0608,0.0584,0.0552,0.0433,0.0347,0.0222,0.0153,0.0115,0.0129,0.0108,-0.0017,-0.0024,0.0045,0.0045,0.0045,0.0045,0.0044,0,0.0739,0.0748,0.0741,0.072,0.0689,0.0656,0.0626,0.0602,0.0648,0.0696,0.0779,0.0735,0.0776,0.0643,0.0417,0.0262,0.0212,0.0136,0.0029,0.0017,-0.001,-0.0016,-0.0023,0.0061,0.0061,0.0061,0.0061,0,0.0773,0.0754,0.0775,0.0755,0.0724,0.071,0.0717,0.0767,0.0809,0.0896,0.1077,0.1111,0.0934,0.0768,0.0479,0.0359,0.0151,0.0125,0.0149,0.0036,0.0031,0.0004,-0.0002,0.006,0.006,0.006,0.006,0.006,0.078,0.0803,0.0821,0.0792,0.0787,0.0836,0.0859,0.0979,0.1126,0.1305,0.1329,0.1367,0.1096,0.0725,0.0479,0.0156,0.0166,0.0042,0.0043,0.0043,0.0019,0.0012,0.0035,0.0035,0.0034,0.0034,0.0034,0,0.0807,0.0816,0.0835,0.0851,0.089,0.0859,0.0979,0.1079,0.1341,0.1447,0.159,0.1345,0.1128,0.0785,0.0298,0.0045,0.0014,-0.0039,-0.0032,-0.0028,-0.0026,-0.0055,-0.0059,-0.006,-0.0061,-0.0062,0,0,0.0813,0.0868,0.0893,0.0961,0.0951,0.1039,0.1122,0.1329,0.1462,0.1615,0.1589,0.1575,0.1178,0.0814,0.0469,0.0182,0.0132,0.0134,0.024,0.0293,0.0298,0.0058,0.0022,0,0,0,0,0]}],[{"header":{"parameterUnit":"m.s-1","parameterCategory":2,"la1":30.2991,"la2":30.254,"lo1":-89.0895,"lo2":-89.0444,"dy":0.0017,"dx":0.0017,"nx":28,"ny":28,"refTime":"2023-05-26T21:00:00:Z","depth":"4","parameterNumber":2,"parameterNumberName":"U-component_of_CURRENTS"},"data":[0,0,0,0,0,0,0,0,0,0,0,0,0,0,0,0,0,0,0,0,0,0,0,0,0,0,0,0,0,0,0,0,0,0,0,0,0,0,0,0,0,0,0,0,0,0,0,0,0,0,0,0,0,0,0,0,0,0,0.0445,0.0446,0,0.0566,0.0568,0.057,0.0722,0.0723,0.0724,0.0726,0.0926,0.093,0.0934,0,0,0,0,0,0,0,0,0,0,0,0,0,0.0318,0.032,0.0445,0.0446,0.0446,0.0566,0.0568,0.0571,0.0721,0.0723,0.0725,0.0727,0.0925,0.0929,0.0934,0,0,0,0,0,0,0,0,0,0,0,0,0,0.0409,0.0321,0.0445,0.0528,0.0536,0.0565,0.0568,0.0572,0.0721,0.0723,0.0725,0.0727,0.0923,0.0929,0.0935,0.0927,0,0,0.0953,0.0955,0,0,0,0,0,0,0,0,0.0403,0.0415,0.0515,0.0522,0.0531,0.0622,0.0596,0.0691,0.072,0.0662,0.0726,0.0728,0.0823,0.0837,0.0869,0.0937,0.0945,0.0953,0.0957,0.096,0.0961,0,0,0,0,0,0,0,0.0397,0.041,0.0503,0.0515,0.0525,0.0549,0.0566,0.0615,0.0738,0.0667,0.0676,0.0672,0.083,0.0863,0.0875,0.0948,0.0953,0.0959,0.0962,0.0965,0.1091,0.1091,0,0,0,0,0,0,0.0361,0.0404,0.0499,0.0506,0.046,0.0549,0.0568,0.0599,0.0736,0.0755,0.067,0.0678,0.0852,0.0868,0.0882,0.0966,0.096,0.0965,0.0969,0.1091,0.1091,0.1091,0,0,0,0,0,0,0.0358,0.037,0.0494,0.0447,0.0464,0.0548,0.0582,0.06,0.0645,0.0735,0.0759,0.0696,0.0854,0.0874,0.0961,0.0971,0.0968,0.0973,0.1091,0.1091,0.1091,0.1078,0,0,0,0,0,0,0.0355,0.0369,0.0373,0.0446,0.0465,0.0514,0.0579,0.06,0.0633,0.0646,0.0765,0.0785,0.0857,0.0952,0.0967,0.098,0.0978,0.1092,0.1091,0.1091,0.1079,0.1078,0.1076,0,0,0,0,0,0.035,0.035,0.0373,0.0383,0.0471,0.0512,0.0526,0.0598,0.0632,0.0649,0.0748,0.0782,0.0959,0.0958,0.0975,0.0989,0.1092,0.1091,0.1091,0.1079,0.1078,0.1076,0,0,0,0,0,0,0.0304,0.0366,0.0394,0.0415,0.0456,0.0534,0.0548,0.0588,0.0677,0.0709,0.0795,0.0823,0.0902,0.0934,0.093,0.1019,0.1023,0.1026,0.1008,0.1008,0.1006,0.1049,0.0983,0,0,0,0,0,0.0286,0.0307,0.0365,0.0381,0.04,0.047,0.0492,0.055,0.0629,0.0672,0.0745,0.0828,0.0907,0.095,0.1019,0.1067,0.1104,0.1079,0.1078,0.1077,0.1121,0.1172,0.1181,0.1089,0.1089,0.1089,0,0,0.0275,0.0304,0.032,0.037,0.0416,0.0467,0.0495,0.0543,0.0602,0.0677,0.0776,0.0831,0.0919,0.0995,0.1028,0.1029,0.1112,0.1076,0.1075,0.1121,0.1173,0.1183,0.1191,0.1089,0.1089,0.1089,0,0,0.0261,0.0289,0.0308,0.0349,0.0403,0.0454,0.046,0.0542,0.0596,0.069,0.0755,0.0819,0.0931,0.0995,0.1044,0.1065,0.1105,0.1064,0.11,0.1148,0.1157,0.1166,0.1185,0.1196,0.1061,0.1061,0.1061,0,0.0242,0.0292,0.0315,0.0355,0.0394,0.0447,0.05,0.0558,0.0658,0.0715,0.0729,0.0898,0.0944,0.1051,0.1068,0.1067,0.1098,0.1102,0.1149,0.1159,0.1168,0.1187,0.1199,0.106,0.1061,0.1061,0.1061,0,0.0272,0.031,0.0324,0.0404,0.0438,0.0492,0.0568,0.0621,0.0686,0.0762,0.0872,0.0935,0.1045,0.1035,0.1079,0.115,0.115,0.1142,0.1158,0.1177,0.1194,0.1207,0.106,0.106,0.106,0.106,0,0,0.0261,0.0331,0.0344,0.0386,0.0481,0.0518,0.0608,0.0714,0.0797,0.0876,0.098,0.1076,0.1109,0.1163,0.1175,0.1206,0.1263,0.121,0.1213,0.124,0.1365,0.1317,0.1326,0.1271,0.1274,0.1277,0.1338,0,0.0292,0.0358,0.0395,0.048,0.0531,0.0605,0.0686,0.0789,0.0881,0.0986,0.1057,0.1168,0.1155,0.1205,0.1237,0.1262,0.1304,0.1248,0.1338,0.1341,0.1304,0.1342,0.1286,0.1347,0.135,0.1353,0.1354,0,0.0332,0.0372,0.0447,0.0537,0.0569,0.0637,0.0779,0.0862,0.1018,0.1089,0.1201,0.1269,0.1345,0.132,0.1399,0.1368,0.1394,0.1396,0.1398,0.1384,0.1319,0.1334,0.1378,0.1376,0.1374,0.1372,0.1371,0,0.0322,0.0414,0.0467,0.0507,0.0618,0.0683,0.0767,0.0918,0.0998,0.1169,0.1249,0.1354,0.1423,0.1461,0.1501,0.1461,0.1581,0.1513,0.1496,0.1491,0.1521,0.1512,0.1606,0.1606,0.1606,0.1606,0.1606,0,0.0342,0.0389,0.0476,0.0513,0.0613,0.0699,0.0825,0.0926,0.1072,0.1183,0.1306,0.1391,0.1474,0.1556,0.1551,0.1576,0.1629,0.1537,0.1523,0.1505,0.1493,0.1527,0.1518,0.1608,0.1608,0.1607,0.1607,0,0.0313,0.0367,0.0432,0.0552,0.0606,0.0684,0.0845,0.0915,0.1079,0.1218,0.1281,0.1448,0.1549,0.1621,0.1694,0.1646,0.1662,0.1674,0.167,0.1648,0.1514,0.1502,0.1615,0.1615,0.1614,0.1613,0.1613,0,0.0299,0.033,0.0446,0.0483,0.0542,0.0669,0.074,0.0907,0.0994,0.1235,0.129,0.1475,0.1573,0.1626,0.1695,0.1717,0.1709,0.1704,0.1594,0.155,0.1525,0.1514,0.1503,0.1612,0.1612,0.1612,0.1611,0,0.0268,0.0305,0.0353,0.0437,0.0508,0.0595,0.0737,0.0793,0.099,0.113,0.1289,0.1391,0.1525,0.1586,0.167,0.1665,0.168,0.1696,0.1695,0.1591,0.1547,0.152,0.151,0.1609,0.1609,0.161,0.161,0,0.0237,0.0258,0.0313,0.0396,0.0463,0.0529,0.0604,0.0731,0.0848,0.1123,0.1166,0.1354,0.1505,0.1565,0.1613,0.1644,0.1587,0.1508,0.1515,0.1519,0.1465,0.1394,0.1428,0,0,0,0,0,0.0205,0.0227,0.0272,0.0355,0.0406,0.0472,0.06,0.0675,0.0873,0.0947,0.1071,0.1195,0.1326,0.1418,0.1426,0.1549,0.1574,0.1552,0.1479,0.1597,0.1599,0.1549,0,0,0,0,0,0,0.0179,0.0207,0.0252,0.0306,0.0356,0.0425,0.0502,0.0618,0.0698,0.0894,0.0967,0.1127,0.1259,0.1315,0.1407,0.1435,0.1365,0.1671,0.1668,0.1595,0.1598,0.16,0.1549,0,0,0,0,0]},{"header":{"parameterUnit":"m.s-1","parameterCategory":2,"la1":30.2991,"la2":30.254,"lo1":-89.0895,"lo2":-89.0444,"dy":0.0017,"dx":0.0017,"nx":28,"ny":28,"refTime":"2023-05-26T21:00:00:Z","depth":"4","parameterNumber":3,"parameterNumberName":"V-component_of_CURRENTS"},"data":[0,0,0,0,0,0,0,0,0,0,0,0,0,0,0,0,0,0,0,0,0,0,0,0,0,0,0,0,0,0,0,0,0,0,0,0,0,0,0,0,0,0,0,0,0,0,0,0,0,0,0,0,0,0,0,0,0,0,0.0496,0.0495,0,0.0371,0.0369,0.0367,0.0236,0.0235,0.0233,0.0232,0.0099,0.0097,0.0095,0,0,0,0,0,0,0,0,0,0,0,0,0,0.0638,0.0635,0.0496,0.0495,0.0494,0.0371,0.0369,0.0367,0.0236,0.0235,0.0233,0.0231,0.01,0.0097,0.0095,0,0,0,0,0,0,0,0,0,0,0,0,0,0.0546,0.0634,0.0496,0.0418,0.041,0.0372,0.0369,0.0366,0.0237,0.0235,0.0233,0.0231,0.0101,0.0098,0.0094,0.0113,0,0,0.0084,0.0082,0,0,0,0,0,0,0,0,0.0551,0.054,0.043,0.0423,0.0414,0.0322,0.0371,0.0283,0.0237,0.0297,0.0232,0.023,0.0178,0.0168,0.0141,0.0106,0.0101,0.0083,0.0081,0.008,0.0079,0,0,0,0,0,0,0,0.0557,0.0545,0.0441,0.043,0.042,0.0395,0.0379,0.0353,0.0246,0.0291,0.0283,0.0278,0.0173,0.0145,0.0137,0.0099,0.0083,0.008,0.0078,0.0077,0.0015,0.0015,0,0,0,0,0,0,0.0585,0.0551,0.0445,0.0438,0.0485,0.0395,0.0376,0.0349,0.0246,0.023,0.028,0.0273,0.0152,0.0142,0.0132,0.014,0.008,0.0077,0.0075,0.0015,0.0015,0.0015,0,0,0,0,0,0,0.0588,0.0576,0.045,0.0497,0.048,0.0395,0.0365,0.0348,0.033,0.0239,0.0221,0.0282,0.015,0.0137,0.0092,0.0134,0.0075,0.0072,0.0014,0.0015,0.0015,0.0161,0,0,0,0,0,0,0.0592,0.0577,0.0578,0.0498,0.0478,0.044,0.0367,0.0347,0.0332,0.0321,0.0234,0.0218,0.0147,0.0098,0.0089,0.0128,0.0069,0.0013,0.0014,0.0015,0.0156,0.0167,0.0176,0,0,0,0,0,0.0597,0.0589,0.0578,0.0567,0.0478,0.0442,0.0429,0.0359,0.0335,0.0334,0.0257,0.0222,0.0097,0.0095,0.0085,0.0124,0.0013,0.0014,0.0015,0.0151,0.0165,0.0176,0,0,0,0,0,0,0.0632,0.0574,0.0559,0.0529,0.0505,0.0422,0.0418,0.0385,0.0326,0.0317,0.0226,0.0205,0.0181,0.0131,0.0132,0.0104,0.0051,0.005,0.0159,0.017,0.018,0.0203,0.0066,0,0,0,0,0,0.0653,0.0642,0.0587,0.0573,0.0565,0.0508,0.0491,0.0451,0.0388,0.036,0.0301,0.0234,0.0178,0.0156,0.0099,0.0097,0.0041,0.0112,0.0123,0.0132,0.014,0.0071,0.0077,0.0019,0.0019,0.0019,0,0,0.067,0.0635,0.0631,0.0585,0.0558,0.0547,0.049,0.0476,0.0467,0.036,0.0333,0.0273,0.0182,0.0157,0.0145,0.0123,0.0123,0.0133,0.0142,0.0145,0.0073,0.0079,0.0084,0.0019,0.0019,0.0019,0,0,0.069,0.0668,0.0666,0.0657,0.0635,0.0597,0.0608,0.0552,0.0527,0.0508,0.0415,0.0373,0.0312,0.0239,0.0197,0.0235,0.0176,0.0233,0.0311,0.0246,0.025,0.0253,0.0216,0.0215,0.0243,0.0243,0.0243,0,0.0712,0.0697,0.0666,0.0666,0.0665,0.0629,0.0634,0.0611,0.0548,0.0539,0.052,0.0407,0.0347,0.0286,0.0298,0.0263,0.0223,0.0279,0.0261,0.0263,0.0264,0.0224,0.0221,0.025,0.0249,0.0249,0.0248,0,0.0734,0.0733,0.0738,0.0725,0.0717,0.0728,0.0695,0.0694,0.0681,0.0653,0.062,0.0527,0.0456,0.0443,0.0389,0.0367,0.0337,0.0282,0.024,0.0279,0.0234,0.0228,0.026,0.0258,0.0256,0.0254,0,0,0.0753,0.0753,0.0758,0.0762,0.0757,0.0742,0.0756,0.0743,0.0749,0.0722,0.0712,0.0641,0.0608,0.0557,0.0482,0.0441,0.0431,0.0389,0.0382,0.0369,0.0312,0.0299,0.0291,0.0378,0.0377,0.0376,0.0288,0,0.0786,0.0805,0.0788,0.0808,0.082,0.0802,0.0815,0.0805,0.0796,0.0784,0.0724,0.0694,0.0645,0.0625,0.0574,0.0442,0.0418,0.0462,0.0259,0.0254,0.0251,0.0284,0.0374,0.0283,0.0282,0.0281,0.028,0,0.0813,0.0825,0.0859,0.0855,0.0858,0.0875,0.0883,0.089,0.088,0.087,0.084,0.0788,0.0719,0.0681,0.0511,0.0542,0.0461,0.0375,0.0368,0.0299,0.0229,0.0223,0.0268,0.0269,0.0269,0.027,0.0271,0,0.0846,0.086,0.0891,0.09,0.0904,0.0925,0.094,0.0945,0.0958,0.0945,0.0949,0.0846,0.0806,0.0671,0.0523,0.0516,0.0341,0.0289,0.0208,0.0206,0.0179,0.0175,0.0206,0.0206,0.0206,0.0206,0.0206,0,0.0873,0.089,0.0925,0.0945,0.1006,0.0989,0.1047,0.1046,0.105,0.107,0.1014,0.0986,0.0809,0.0691,0.0543,0.0359,0.035,0.0233,0.0181,0.0245,0.025,0.0176,0.0174,0.0203,0.0204,0.0204,0.0205,0,0.0883,0.091,0.0947,0.099,0.1029,0.1079,0.1145,0.1159,0.1174,0.1191,0.1198,0.1094,0.0935,0.0751,0.0522,0.0396,0.021,0.0162,0.0276,0.0229,0.0117,0.0124,0.0043,0.0042,0.0041,0.004,0.004,0,0.088,0.0912,0.1004,0.1069,0.1104,0.119,0.1242,0.1249,0.1262,0.1246,0.124,0.1132,0.104,0.0708,0.0511,0.0228,0.0195,0.0114,0.01,0.0143,0.01,0.0108,0.0115,0.0038,0.0038,0.0037,0.0037,0,0.0876,0.0925,0.0962,0.1118,0.1196,0.1266,0.1345,0.1346,0.1335,0.1351,0.1268,0.1121,0.0947,0.0698,0.0502,0.0295,0.0156,0.0102,0.0103,0.0089,0.0135,0.0095,0.0104,0.0034,0.0034,0.0034,0.0035,0,0.0881,0.0931,0.1016,0.114,0.125,0.1311,0.1337,0.1336,0.1339,0.1307,0.1282,0.1107,0.1023,0.0734,0.0536,0.0343,0.0281,0.0211,0.0204,0.0206,0.0274,0.0358,0.0291,0,0,0,0,0,0.0871,0.0936,0.1043,0.1146,0.1239,0.1306,0.1383,0.1379,0.1371,0.1311,0.1296,0.1135,0.0849,0.0735,0.0534,0.0496,0.0239,0.0254,0.0152,0.0014,0.0018,0.0069,0,0,0,0,0,0,0.0877,0.0959,0.1024,0.112,0.119,0.1262,0.1307,0.1293,0.1265,0.1259,0.111,0.108,0.0802,0.0959,0.0527,0.0474,0.0379,0.0141,0.0136,0.0012,0.0015,0.0019,0.0072,0,0,0,0,0]}]]